Location: ??????
(38.0677°N, 22.9870°E)
Time: 11:02:21
(UTC+00:00)

Cosmos 1300 Rocket - Pass Details

Date: 23 May 2024
Orbit: 597 x 623 km, 82.5° (Epoch: 24 June)

Event Time Altitude Azimuth Distance (km) Brightness Sun altitude
Rises 01:14:15 0° 341° (NNW) 2,863 7.4 -19.1°
Reaches altitude 10° 01:16:39 10° 331° (NNW) 1,951 6.3 -18.8°
Maximum altitude 01:20:26 31° 270° (W) 1,068 4.4 -18.3°
Enters shadow 01:20:34 31° 266° (W) 1,070 4.4 -18.2°
